Weather History for Houston / Dunn Helistop, TX

Change the Weather History Date:

Friday, November 22, 2013

  Actual Average (KHOU) Record (KHOU)
Temperature  
Mean Temperature 58 °F 60 °F  
Max Temperature 73 °F 70 °F 87 °F (1973)
Min Temperature 42 °F 50 °F 30 °F (1975)
Degree Days  
Heating Degree Days 8 6  
Month to date heating degree days 93  
Since 1 July heating degree days 123  
Growing Degree Days 8 (Base 50)    
Moisture  
Dew Point 54 °F    
Average Humidity 94    
Maximum Humidity 100    
Minimum Humidity 87    
Precipitation  
Precipitation 1.18 in 0.13 in 3.09 in (2004)
Month to date precipitation 3.21  
Year to date precipitation 44.90  
Sea Level Pressure  
Sea Level Pressure 30.15 in    
Wind  
Wind Speed 12 mph (North)    
Max Wind Speed 24 mph    
Max Gust Speed 30 mph    
Visibility 5 miles    
Events      
T = Trace of Precipitation, MM = Missing Value Source: NWS Daily Summary

Daily Weather History Graph

Daily Weather History Graph

Search for Another Location

Airport:

Trip Planner

Search our weather history database for the weather conditions in past years. The results will help you decide how hot, cold, wet, or windy it might be!

Date:

Astronomy

Nov. 22, 2013 Rise Set
Actual Time 6:52 AM CST 5:23 PM CST
Civil Twilight 6:26 AM CST 5:48 PM CST
Nautical Twilight 5:57 AM CST 6:17 PM CST
Astronomical Twilight 5:28 AM CST 6:46 PM CST
Moon 9:50 PM CST (11/22) 10:40 AM CST (11/22)
Length of Visible Light 11h 22m
Length of Day
10h 31m
Waning Gibbous, 78% of the Moon is Illuminated
Nov 22
Waning Gibbous
Nov 25
Last Quarter
Dec 2
New
Dec 9
First Quarter
Dec 17
Full

Hourly Weather History & Observations

Time (CST) Temp. Windchill Dew Point Humidity Pressure Visibility Wind Dir Wind Speed Gust Speed Precip Events Conditions
12:15 AM 73.4 °F - 71.6 °F 94% 30.05 in 10.0 mi SE 9.2 mph - N/A   Overcast
12:35 AM 73.4 °F - 71.6 °F 94% 30.04 in 8.0 mi SE 8.1 mph - N/A   Overcast
12:55 AM 73.4 °F - 71.6 °F 94% 30.05 in 8.0 mi SE 8.1 mph - N/A   Overcast
1:15 AM 73.4 °F - 71.6 °F 94% 30.05 in 8.0 mi SE 9.2 mph - N/A   Overcast
1:35 AM 73.4 °F - 71.6 °F 94% 30.05 in 8.0 mi SE 10.4 mph - N/A   Overcast
1:55 AM 73.4 °F - 71.6 °F 94% 30.05 in 7.0 mi SE 8.1 mph - N/A   Overcast
2:15 AM 73.4 °F - 71.6 °F 94% 30.04 in 8.0 mi SSE 11.5 mph - N/A   Overcast
2:35 AM 73.4 °F - 71.6 °F 94% 30.04 in 7.0 mi SSE 10.4 mph - N/A   Overcast
2:55 AM 73.4 °F - 71.6 °F 94% 30.04 in 8.0 mi SE 8.1 mph - N/A   Overcast
3:15 AM 73.4 °F - 71.6 °F 94% 30.04 in 9.0 mi SE 9.2 mph - N/A   Overcast
3:35 AM 73.4 °F - 71.6 °F 94% 30.04 in 8.0 mi SE 4.6 mph - N/A   Overcast
3:55 AM 73.4 °F - 71.6 °F 94% 30.04 in 5.0 mi ENE 4.6 mph - N/A   Overcast
4:15 AM 71.6 °F - 71.6 °F 100% 30.05 in 4.0 mi East 4.6 mph - N/A   Overcast
4:35 AM 71.6 °F - 71.6 °F 100% 30.05 in 3.0 mi East 5.8 mph - N/A   Overcast
4:55 AM 71.6 °F - 71.6 °F 100% 30.06 in 3.0 mi ESE 5.8 mph - N/A   Overcast
5:15 AM 71.6 °F - 71.6 °F 100% 30.06 in 2.5 mi East 5.8 mph - N/A   Overcast
5:35 AM 71.6 °F - 71.6 °F 100% 30.06 in 2.5 mi East 6.9 mph - N/A   Overcast
5:55 AM 71.6 °F - 71.6 °F 100% 30.06 in 2.0 mi East 10.4 mph - N/A   Overcast
6:15 AM 71.6 °F - 71.6 °F 100% 30.07 in 2.5 mi ESE 10.4 mph - N/A   Overcast
6:35 AM 71.6 °F - 71.6 °F 100% 30.07 in 2.5 mi ESE 11.5 mph - N/A   Overcast
6:55 AM 71.6 °F - 71.6 °F 100% 30.08 in 1.2 mi ESE 8.1 mph - N/A   Overcast
7:15 AM 71.6 °F - 71.6 °F 100% 30.08 in 0.8 mi ESE 10.4 mph - N/A   Overcast
7:35 AM 64.4 °F - 64.4 °F 100% 30.12 in 1.8 mi NW 15.0 mph 25.3 mph N/A   Overcast
7:55 AM 57.2 °F - 55.4 °F 94% 30.14 in 7.0 mi NW 12.7 mph 21.9 mph N/A   Overcast
8:15 AM 55.4 °F - 53.6 °F 94% 30.15 in 0.8 mi NNW 18.4 mph 28.8 mph 0.06 in   Overcast
8:35 AM 53.6 °F - 51.8 °F 94% 30.15 in 3.0 mi NNW 21.9 mph 28.8 mph 0.06 in   Overcast
8:55 AM 53.6 °F - 53.6 °F 100% 30.16 in 1.8 mi North 6.9 mph - 0.09 in   Overcast
9:15 AM 55.4 °F - 53.6 °F 94% 30.18 in 1.0 mi WNW 17.3 mph - 0.11 in   Overcast
9:35 AM 55.4 °F - 53.6 °F 94% 30.17 in 0.5 mi NNW 10.4 mph 18.4 mph 0.59 in   Overcast
9:55 AM 53.6 °F - 53.6 °F 100% 30.19 in 0.8 mi NW 10.4 mph - 0.96 in   Overcast
10:15 AM 53.6 °F - 51.8 °F 94% 30.18 in 1.0 mi NNW 12.7 mph 23.0 mph 0.11 in   Overcast
10:35 AM 51.8 °F - 50.0 °F 94% 30.20 in 4.0 mi NNW 11.5 mph - 0.13 in   Overcast
10:55 AM 50.0 °F - 50.0 °F 100% 30.20 in 10.0 mi NNW 12.7 mph - 0.13 in   Overcast
11:15 AM 50.0 °F - 50.0 °F 100% 30.19 in 10.0 mi NNW 16.1 mph 23.0 mph N/A   Overcast
11:35 AM 50.0 °F - 50.0 °F 100% 30.19 in 9.0 mi NW 13.8 mph 25.3 mph N/A   Overcast
11:55 AM 50.0 °F - 48.2 °F 94% 30.19 in 6.0 mi NNW 13.8 mph 19.6 mph N/A   Overcast
12:15 PM 50.0 °F - 48.2 °F 94% 30.17 in 1.8 mi NNW 16.1 mph - N/A   Overcast
12:35 PM 50.0 °F - 48.2 °F 94% 30.18 in 1.8 mi NNW 13.8 mph 23.0 mph N/A   Overcast
12:55 PM 50.0 °F - 48.2 °F 94% 30.18 in 3.0 mi NNW 16.1 mph 20.7 mph N/A   Overcast
1:15 PM 50.0 °F - 48.2 °F 94% 30.17 in 5.0 mi NW 12.7 mph 18.4 mph N/A   Overcast
1:35 PM 50.0 °F - 48.2 °F 94% 30.16 in 3.0 mi North 15.0 mph 20.7 mph N/A   Overcast
1:55 PM 50.0 °F - 48.2 °F 94% 30.16 in 1.8 mi North 16.1 mph - N/A   Overcast
2:15 PM 50.0 °F - 48.2 °F 94% 30.14 in 2.5 mi NNW 16.1 mph - N/A   Overcast
2:35 PM 50.0 °F - 48.2 °F 94% 30.15 in 5.0 mi NNW 12.7 mph 18.4 mph N/A   Overcast
2:55 PM 50.0 °F - 48.2 °F 94% 30.16 in 9.0 mi NNW 15.0 mph 20.7 mph N/A   Overcast
3:15 PM 50.0 °F - 48.2 °F 94% 30.17 in 5.0 mi North 15.0 mph 20.7 mph N/A   Overcast
3:35 PM 48.2 °F - 48.2 °F 100% 30.17 in 5.0 mi NNW 17.3 mph 23.0 mph N/A   Overcast
3:55 PM 48.2 °F - 46.4 °F 93% 30.17 in 4.0 mi NNW 18.4 mph 26.5 mph N/A   Overcast
4:15 PM 48.2 °F - 46.4 °F 93% 30.17 in 4.0 mi NNW 13.8 mph 24.2 mph N/A   Overcast
4:35 PM 48.2 °F - 46.4 °F 93% 30.18 in 5.0 mi NNW 15.0 mph 21.9 mph N/A   Overcast
4:55 PM 48.2 °F - 46.4 °F 93% 30.18 in 3.0 mi NNW 21.9 mph - N/A   Overcast
5:15 PM 46.4 °F 40.1 °F 44.6 °F 93% 30.18 in 1.8 mi NNW 15.0 mph 25.3 mph N/A   Overcast
5:35 PM 46.4 °F 39.5 °F 44.6 °F 93% 30.19 in 3.0 mi NNW 17.3 mph 23.0 mph N/A   Overcast
5:55 PM 46.4 °F 40.1 °F 44.6 °F 93% 30.19 in 6.0 mi NNW 15.0 mph 26.5 mph N/A   Overcast
6:15 PM 46.4 °F 39.8 °F 44.6 °F 93% 30.21 in 5.0 mi NNW 16.1 mph 23.0 mph N/A   Overcast
6:35 PM 46.4 °F 39.8 °F 44.6 °F 93% 30.21 in 3.0 mi NNW 16.1 mph 24.2 mph N/A   Overcast
6:55 PM 44.6 °F 38.4 °F 44.6 °F 100% 30.21 in 3.0 mi NNW 12.7 mph - N/A   Overcast
7:15 PM 44.6 °F 37.2 °F 44.6 °F 100% 30.21 in 3.0 mi NNW 17.3 mph 26.5 mph N/A   Overcast
7:35 PM 44.6 °F 37.2 °F 42.8 °F 93% 30.22 in 2.0 mi North 17.3 mph 21.9 mph N/A   Overcast
7:55 PM 44.6 °F 37.2 °F 42.8 °F 93% 30.22 in 2.0 mi North 17.3 mph 25.3 mph N/A   Overcast
8:15 PM 44.6 °F 35.7 °F 42.8 °F 93% 30.22 in 3.0 mi North 24.2 mph 27.6 mph N/A   Overcast
8:35 PM 44.6 °F 36.6 °F 41.0 °F 87% 30.22 in 7.0 mi North 19.6 mph 28.8 mph N/A   Overcast
8:55 PM 44.6 °F 36.9 °F 41.0 °F 87% 30.23 in 4.0 mi NNW 18.4 mph 29.9 mph N/A   Overcast
9:15 PM 44.6 °F 36.9 °F 41.0 °F 87% 30.24 in 3.0 mi NNW 18.4 mph 28.8 mph N/A   Overcast
9:35 PM 44.6 °F 36.9 °F 41.0 °F 87% 30.24 in 5.0 mi NNW 18.4 mph 28.8 mph N/A   Overcast
9:55 PM 44.6 °F 38.8 °F 41.0 °F 87% 30.25 in 6.0 mi NNW 11.5 mph 18.4 mph N/A   Overcast
10:15 PM 44.6 °F 36.6 °F 41.0 °F 87% 30.24 in 10.0 mi NNW 19.6 mph 25.3 mph N/A   Overcast
10:35 PM 42.8 °F 34.5 °F 41.0 °F 93% 30.24 in 10.0 mi North 18.4 mph 28.8 mph N/A   Overcast
10:55 PM 44.6 °F 36.9 °F 41.0 °F 87% 30.24 in 10.0 mi NNW 18.4 mph 23.0 mph N/A   Overcast
11:15 PM 44.6 °F 36.4 °F 41.0 °F 87% 30.23 in 10.0 mi NNW 20.7 mph 25.3 mph N/A   Overcast
11:35 PM 44.6 °F 36.9 °F 41.0 °F 87% 30.23 in 10.0 mi North 18.4 mph 23.0 mph N/A   Overcast
11:55 PM 44.6 °F 36.9 °F 41.0 °F 87% 30.23 in 10.0 mi NNW 18.4 mph 23.0 mph N/A   Overcast